,,,PA_Meas_PMT16A,,PR_Meas_QMR101_102,,RH_Meas_QMH101,,SR_Meas_QMS101,,TA_Meas_QMH101,,GenWind,,GenWind,
date,time,status,PA,status,PR,status,RH,status,SR,status,TA,status,DirAvg,status,SpdAvg,
2010-03-21, 00:00:05,VALID,1003.55,VALID,0,VALID,93.8581,VALID,0,VALID,24.4804,VALID,25,VALID,0,
2010-03-21, 00:01:05,VALID,1003.56,VALID,0,VALID,93.8123,VALID,0,VALID,24.5017,VALID,25,VALID,0,
2010-03-21, 00:02:05,VALID,1003.54,VALID,0,VALID,93.7895,VALID,0,VALID,24.5406,VALID,25,VALID,0,
2010-03-21, 00:03:05,VALID,1003.52,VALID,0,VALID,93.7742,VALID,0,VALID,24.5406,VALID,25,VALID,0,
2010-03-21, 00:04:05,VALID,1003.49,VALID,0,VALID,93.7589,VALID,0,VALID,24.5601,VALID,25,VALID,0,
2010-03-21, 00:05:05,VALID,1003.48,VALID,0,VALID,93.7284,VALID,0,VALID,24.5972,VALID,25,VALID,0,
2010-03-21, 00:06:05,VALID,1003.48,VALID,0,VALID,93.7437,VALID,0,VALID,24.638,VALID,25,VALID,0,
2010-03-21, 00:07:05,VALID,1003.46,VALID,0,VALID,93.7208,VALID,0,VALID,24.6166,VALID,25,VALID,0,
2010-03-21, 00:08:05,VALID,1003.45,VALID,0,VALID,93.6674,VALID,0,VALID,24.6574,VALID,25,VALID,0.200391,
2010-03-21, 00:09:05,VALID,1003.46,VALID,0,VALID,93.5987,VALID,0,VALID,24.6361,VALID,25,VALID,0.0398437,
2010-03-21, 00:10:05,VALID,1003.49,VALID,0,VALID,93.5224,VALID,0,VALID,24.6769,VALID,25,VALID,0,
2010-03-21, 00:11:05,VALID,1003.47,VALID,0,VALID,93.469,VALID,0,VALID,24.6769,VALID,25,VALID,0.0328125,
2010-03-21, 00:12:05,VALID,1003.47,VALID,0,VALID,93.4385,VALID,0,VALID,24.675,VALID,25,VALID,0,
2010-03-21, 00:13:05,VALID,1003.44,VALID,0,VALID,93.4233,VALID,0,VALID,24.7159,VALID,25,VALID,0.0046875,
2010-03-21, 00:14:05,VALID,1003.45,VALID,0,VALID,93.4385,VALID,0,VALID,24.7353,VALID,25,VALID,0.485547,
2010-03-21, 00:15:05,VALID,1003.44,VALID,0,VALID,93.4004,VALID,0,VALID,24.714,VALID,25,VALID,0.513281,
2010-03-21, 00:16:05,VALID,1003.37,VALID,0,VALID,93.4233,VALID,0,VALID,24.7353,VALID,25,VALID,0.220703,
2010-03-21, 00:17:05,VALID,1003.37,VALID,0,VALID,93.4004,VALID,0,VALID,24.6945,VALID,25,VALID,0,
2010-03-21, 00:18:05,VALID,1003.34,VALID,0,VALID,93.4004,VALID,0,VALID,24.6964,VALID,25,VALID,0,
2010-03-21, 00:19:05,VALID,1003.32,VALID,0,VALID,93.3699,VALID,0,VALID,24.6556,VALID,25,VALID,0,
2010-03-21, 00:20:05,VALID,1003.31,VALID,0,VALID,93.3851,VALID,0,VALID,24.6964,VALID,25,VALID,0.046875,
2010-03-21, 00:21:05,VALID,1003.3,VALID,0,VALID,93.4156,VALID,0,VALID,24.6769,VALID,25,VALID,0.0175781,
2010-03-21, 00:22:05,VALID,1003.28,VALID,0,VALID,93.4233,VALID,0,VALID,24.6361,VALID,25,VALID,0.232812,
2010-03-21, 00:23:05,VALID,1003.26,VALID,0,VALID,93.4156,VALID,0,VALID,24.6166,VALID,25,VALID,0,
2010-03-21, 00:24:05,VALID,1003.27,VALID,0,VALID,93.3928,VALID,0,VALID,24.638,VALID,25,VALID,0,
2010-03-21, 00:25:05,VALID,1003.25,VALID,0,VALID,93.4538,VALID,0,VALID,24.6166,VALID,25,VALID,0.201953,
2010-03-21, 00:26:05,VALID,1003.26,VALID,0,VALID,93.469,VALID,0,VALID,24.6185,VALID,25,VALID,0.0136719,
2010-03-21, 00:27:05,VALID,1003.25,VALID,0,VALID,93.4614,VALID,0,VALID,24.6185,VALID,25,VALID,0.0738281,
2010-03-21, 00:28:05,VALID,1003.24,VALID,0,VALID,93.4385,VALID,0,VALID,24.6185,VALID,25,VALID,0,
2010-03-21, 00:29:05,VALID,1003.22,VALID,0,VALID,93.3851,VALID,0,VALID,24.6398,VALID,25,VALID,0.309375,
2010-03-21, 00:30:05,VALID,1003.21,VALID,0,VALID,93.3699,VALID,0,VALID,24.5777,VALID,25,VALID,0.326953,
2010-03-21, 00:31:05,VALID,1003.21,VALID,0,VALID,93.3546,VALID,0,VALID,24.599,VALID,25,VALID,0.336719,
2010-03-21, 00:32:05,VALID,1003.23,VALID,0,VALID,93.3622,VALID,0,VALID,24.5601,VALID,25,VALID,0.350781,
2010-03-21, 00:33:05,VALID,1003.2,VALID,0,VALID,93.4156,VALID,0,VALID,24.5406,VALID,25,VALID,0.177734,
2010-03-21, 00:34:04,VALID,1003.14,VALID,0,VALID,93.5072,VALID,0,VALID,24.5212,VALID,25,VALID,0.195313,
2010-03-21, 00:35:04,VALID,1003.16,VALID,0,VALID,93.6064,VALID,0,VALID,24.5212,VALID,25,VALID,0,
2010-03-21, 00:36:04,VALID,1003.12,VALID,0,VALID,93.6826,VALID,0,VALID,24.5212,VALID,352,VALID,0.314844,
2010-03-21, 00:37:04,VALID,1003.12,VALID,0,VALID,93.7818,VALID,0,VALID,24.5193,VALID,345,VALID,0.494922,
2010-03-21, 00:38:04,VALID,1003.1,VALID,0,VALID,93.8276,VALID,0,VALID,24.5796,VALID,338,VALID,0.278906,
2010-03-21, 00:39:04,VALID,1003.11,VALID,0,VALID,93.8581,VALID,0,VALID,24.6185,VALID,338,VALID,0.369141,
2010-03-21, 00:40:04,VALID,1003.09,VALID,0,VALID,93.7895,VALID,0,VALID,24.6769,VALID,320,VALID,0.3625,
2010-03-21, 00:41:04,VALID,1003.1,VALID,0,VALID,93.675,VALID,0,VALID,24.7159,VALID,342,VALID,0.541016,
2010-03-21, 00:42:04,VALID,1003.1,VALID,0,VALID,93.4767,VALID,0,VALID,24.7548,VALID,277,VALID,0.451172,
2010-03-21, 00:43:04,VALID,1003.05,VALID,0,VALID,93.2325,VALID,0,VALID,24.8132,VALID,335,VALID,0.571094,
2010-03-21, 00:44:04,VALID,1003.05,VALID,0,VALID,92.9121,VALID,0,VALID,24.8308,VALID,335,VALID,0.319141,
2010-03-21, 00:45:04,VALID,1003,VALID,0,VALID,92.6299,VALID,0,VALID,24.8911,VALID,321,VALID,0.292969,
2010-03-21, 00:46:04,VALID,1003.01,VALID,0,VALID,92.3629,VALID,0,VALID,24.9087,VALID,337,VALID,0.511719,
2010-03-21, 00:47:04,VALID,1003,VALID,0,VALID,92.0958,VALID,0,VALID,24.969,VALID,337,VALID,0.410156,
2010-03-21, 00:48:04,VALID,1002.97,VALID,0,VALID,91.8975,VALID,0,VALID,24.9866,VALID,10,VALID,0.370313,
2010-03-21, 00:49:04,VALID,1002.98,VALID,0,VALID,91.5923,VALID,0,VALID,25.0274,VALID,10,VALID,0.202734,
2010-03-21, 00:50:04,VALID,1002.99,VALID,0,VALID,91.3024,VALID,0,VALID,25.045,VALID,10,VALID,0.0839844,
2010-03-21, 00:51:04,VALID,1002.99,VALID,0,VALID,91.1346,VALID,0,VALID,25.0663,VALID,22,VALID,0.401563,
2010-03-21, 00:52:04,VALID,1002.97,VALID,0,VALID,90.8295,VALID,0,VALID,25.1053,VALID,22,VALID,0.125,
2010-03-21, 00:53:04,VALID,1002.96,VALID,0,VALID,90.5396,VALID,0,VALID,25.1034,VALID,17,VALID,0.259375,
2010-03-21, 00:54:04,VALID,1002.99,VALID,0,VALID,90.4251,VALID,0,VALID,25.1637,VALID,227,VALID,0.362891,
2010-03-21, 00:55:04,VALID,1003.02,VALID,0,VALID,90.0894,VALID,0,VALID,25.2027,VALID,253,VALID,0.341797,
2010-03-21, 00:56:04,VALID,1002.99,VALID,0,VALID,89.8682,VALID,0,VALID,25.2435,VALID,254,VALID,0.490234,
2010-03-21, 00:57:04,VALID,1003.01,VALID,0,VALID,89.6088,VALID,0,VALID,25.2007,VALID,297,VALID,0.280469,
2010-03-21, 00:58:04,VALID,1003.03,VALID,0,VALID,89.4105,VALID,0,VALID,25.2416,VALID,254,VALID,0.475391,
2010-03-21, 00:59:04,VALID,1003,VALID,0,VALID,89.3113,VALID,0,VALID,25.2416,VALID,254,VALID,0.257031,
2010-03-21, 01:00:04,VALID,1003.04,VALID,0,VALID,89.2884,VALID,0,VALID,25.2221,VALID,254,VALID,0.302734,
2010-03-21, 01:01:04,VALID,1003,VALID,0,VALID,89.4563,VALID,0,VALID,25.1832,VALID,253,VALID,0.394922,
2010-03-21, 01:02:04,VALID,1002.98,VALID,0,VALID,89.7767,VALID,0,VALID,25.1229,VALID,253,VALID,0.296875,
2010-03-21, 01:03:04,VALID,1002.94,VALID,0,VALID,90.1276,VALID,0,VALID,25.1053,VALID,253,VALID,0.172656,
2010-03-21, 01:04:04,VALID,1002.92,VALID,0,VALID,90.8142,VALID,0,VALID,25.0858,VALID,253,VALID,0.219531,
2010-03-21, 01:05:04,VALID,1002.95,VALID,0,VALID,91.1499,VALID,0,VALID,25.0274,VALID,253,VALID,0.146484,
2010-03-21, 01:06:04,VALID,1002.94,VALID,0,VALID,91.4855,VALID,0,VALID,24.9885,VALID,253,VALID,0.0546875,
2010-03-21, 01:07:04,VALID,1002.95,VALID,0,VALID,91.6991,VALID,0,VALID,24.9282,VALID,253,VALID,0.0078125,
2010-03-21, 01:08:04,VALID,1002.94,VALID,0,VALID,91.8822,VALID,0,VALID,24.93,VALID,253,VALID,0,
2010-03-21, 01:09:04,VALID,1002.93,VALID,0,VALID,92.0348,VALID,0,VALID,24.8911,VALID,253,VALID,0,
2010-03-21, 01:10:04,VALID,1002.95,VALID,0,VALID,92.1416,VALID,0,VALID,24.8716,VALID,253,VALID,0,
2010-03-21, 01:11:04,VALID,1002.93,VALID,0,VALID,92.2255,VALID,0,VALID,24.8327,VALID,253,VALID,0,
2010-03-21, 01:12:04,VALID,1002.94,VALID,0,VALID,92.3629,VALID,0,VALID,24.8327,VALID,253,VALID,0.291797,
2010-03-21, 01:13:04,VALID,1002.94,VALID,0,VALID,92.462,VALID,0,VALID,24.8132,VALID,253,VALID,0,
2010-03-21, 01:14:04,VALID,1002.94,VALID,0,VALID,92.5765,VALID,0,VALID,24.7724,VALID,254,VALID,0.207422,
2010-03-21, 01:15:04,VALID,1002.92,VALID,0,VALID,92.5841,VALID,0,VALID,24.7724,VALID,303,VALID,0.469141,
2010-03-21, 01:16:04,VALID,1002.9,VALID,0,VALID,92.5993,VALID,0,VALID,24.8132,VALID,303,VALID,0.335938,
2010-03-21, 01:17:04,VALID,1002.87,VALID,0,VALID,92.4697,VALID,0,VALID,24.7529,VALID,344,VALID,0.625781,
2010-03-21, 01:18:04,VALID,1002.85,VALID,0,VALID,92.4849,VALID,0,VALID,24.714,VALID,7,VALID,0.243359,
2010-03-21, 01:19:04,VALID,1002.83,VALID,0,VALID,92.6451,VALID,0,VALID,24.6964,VALID,7,VALID,0.268359,
2010-03-21, 01:20:04,VALID,1002.82,VALID,0,VALID,92.7519,VALID,0,VALID,24.6574,VALID,7,VALID,0.319922,
2010-03-21, 01:21:04,VALID,1002.83,VALID,0,VALID,92.874,VALID,0,VALID,24.638,VALID,7,VALID,0.189453,
2010-03-21, 01:22:04,VALID,1002.83,VALID,0,VALID,92.9732,VALID,0,VALID,24.599,VALID,4,VALID,0.396094,
2010-03-21, 01:23:04,VALID,1002.81,VALID,0,VALID,93.0723,VALID,0,VALID,24.599,VALID,4,VALID,0.00351562,
2010-03-21, 01:24:04,VALID,1002.82,VALID,0,VALID,93.1029,VALID,0,VALID,24.599,VALID,4,VALID,0,
2010-03-21, 01:25:04,VALID,1002.78,VALID,0,VALID,93.1486,VALID,0,VALID,24.5796,VALID,4,VALID,0,
2010-03-21, 01:26:04,VALID,1002.75,VALID,0,VALID,93.1868,VALID,0,VALID,24.5796,VALID,4,VALID,0.0628906,
2010-03-21, 01:27:04,VALID,1002.75,VALID,0,VALID,93.2173,VALID,0,VALID,24.5796,VALID,4,VALID,0.183203,
2010-03-21, 01:28:04,VALID,1002.72,VALID,0,VALID,93.2554,VALID,0,VALID,24.5406,VALID,4,VALID,0,
2010-03-21, 01:29:04,VALID,1002.72,VALID,0,VALID,93.2859,VALID,0,VALID,24.4998,VALID,4,VALID,0,
2010-03-21, 01:30:04,VALID,1002.72,VALID,0,VALID,93.3165,VALID,0,VALID,24.5017,VALID,4,VALID,0,
2010-03-21, 01:31:04,VALID,1002.71,VALID,0,VALID,93.347,VALID,0,VALID,24.5017,VALID,4,VALID,0,
2010-03-21, 01:32:04,VALID,1002.73,VALID,0,VALID,93.4462,VALID,0,VALID,24.5017,VALID,4,VALID,0,
2010-03-21, 01:33:04,VALID,1002.74,VALID,0,VALID,93.5377,VALID,0,VALID,24.5017,VALID,4,VALID,0,
2010-03-21, 01:34:04,VALID,1002.72,VALID,0,VALID,93.6064,VALID,0,VALID,24.5017,VALID,4,VALID,0,
2010-03-21, 01:35:04,VALID,1002.74,VALID,0,VALID,93.675,VALID,0,VALID,24.5425,VALID,4,VALID,0,
2010-03-21, 01:36:04,VALID,1002.73,VALID,0,VALID,93.7055,VALID,0,VALID,24.5212,VALID,4,VALID,0,
2010-03-21, 01:37:04,VALID,1002.73,VALID,0,VALID,93.7437,VALID,0,VALID,24.5212,VALID,4,VALID,0,
2010-03-21, 01:38:04,VALID,1002.72,VALID,0,VALID,93.7513,VALID,0,VALID,24.5017,VALID,4,VALID,0,
2010-03-21, 01:39:04,VALID,1002.73,VALID,0,VALID,93.7818,VALID,0,VALID,24.523,VALID,4,VALID,0,
2010-03-21, 01:40:04,VALID,1002.71,VALID,0,VALID,93.8123,VALID,0,VALID,24.5017,VALID,4,VALID,0,
2010-03-21, 01:41:04,VALID,1002.71,VALID,0,VALID,93.8886,VALID,0,VALID,24.5017,VALID,4,VALID,0.213281,
2010-03-21, 01:42:04,VALID,1002.68,VALID,0,VALID,93.8352,VALID,0,VALID,24.4628,VALID,14,VALID,0.603125,
2010-03-21, 01:43:04,VALID,1002.68,VALID,0,VALID,93.7055,VALID,0,VALID,24.4043,VALID,22,VALID,0.691406,
2010-03-21, 01:44:04,VALID,1002.67,VALID,0,VALID,93.6521,VALID,0,VALID,24.3459,VALID,22,VALID,0.534766,
2010-03-21, 01:45:04,VALID,1002.65,VALID,0,VALID,93.7208,VALID,0.100563,VALID,24.3246,VALID,22,VALID,0.432031,
2010-03-21, 01:46:04,VALID,1002.66,VALID,0,VALID,93.7895,VALID,0.100563,VALID,24.3052,VALID,22,VALID,0.371094,
2010-03-21, 01:47:04,VALID,1002.64,VALID,0,VALID,93.8734,VALID,0.100563,VALID,24.2857,VALID,22,VALID,0.396094,
2010-03-21, 01:48:04,VALID,1002.62,VALID,0,VALID,93.9344,VALID,0.100563,VALID,24.2468,VALID,22,VALID,0.470703,
2010-03-21, 01:49:04,VALID,1002.6,VALID,0,VALID,94.0259,VALID,0.100563,VALID,24.2273,VALID,22,VALID,0.483594,
2010-03-21, 01:50:04,VALID,1002.59,VALID,0,VALID,94.1099,VALID,0.100563,VALID,24.2273,VALID,22,VALID,0.442969,
2010-03-21, 01:51:04,VALID,1002.6,VALID,0,VALID,94.1785,VALID,0,VALID,24.2078,VALID,22,VALID,0.353516,
2010-03-21, 01:52:04,VALID,1002.57,VALID,0,VALID,94.2701,VALID,0,VALID,24.2078,VALID,22,VALID,0.311719,
2010-03-21, 01:53:04,VALID,1002.58,VALID,0,VALID,94.3082,VALID,0,VALID,24.1884,VALID,22,VALID,0.298438,
2010-03-21, 01:54:04,VALID,1002.57,VALID,0,VALID,94.3311,VALID,0.100563,VALID,24.1884,VALID,21,VALID,0.516406,
2010-03-21, 01:55:04,VALID,1002.57,VALID,0,VALID,94.3387,VALID,0.100563,VALID,24.1494,VALID,7,VALID,0.450781,
2010-03-21, 01:56:04,VALID,1002.55,VALID,0,VALID,94.3845,VALID,0,VALID,24.1494,VALID,353,VALID,0.317187,
2010-03-21, 01:57:04,VALID,1002.51,VALID,0,VALID,94.3998,VALID,0.100563,VALID,24.1689,VALID,353,VALID,0.0613281,
2010-03-21, 01:58:04,VALID,1002.5,VALID,0,VALID,94.415,VALID,0.100563,VALID,24.1884,VALID,353,VALID,0,
2010-03-21, 01:59:04,VALID,1002.5,VALID,0,VALID,94.4303,VALID,0.100563,VALID,24.2078,VALID,353,VALID,0,
2010-03-21, 02:00:04,VALID,1002.52,VALID,0,VALID,94.4303,VALID,0,VALID,24.2097,VALID,353,VALID,0,
2010-03-21, 02:01:04,VALID,1002.51,VALID,0,VALID,94.3921,VALID,0,VALID,24.1902,VALID,353,VALID,0,
2010-03-21, 02:02:04,VALID,1002.5,VALID,0,VALID,94.3998,VALID,0,VALID,24.1902,VALID,353,VALID,0,
2010-03-21, 02:03:04,VALID,1002.49,VALID,0,VALID,94.3616,VALID,0,VALID,24.2097,VALID,353,VALID,0,
2010-03-21, 02:04:04,VALID,1002.49,VALID,0,VALID,94.3464,VALID,0,VALID,24.1902,VALID,353,VALID,0,
2010-03-21, 02:05:04,VALID,1002.5,VALID,0,VALID,94.3311,VALID,0,VALID,24.1884,VALID,353,VALID,0,
2010-03-21, 02:06:04,VALID,1002.51,VALID,0,VALID,94.3387,VALID,0,VALID,24.2486,VALID,353,VALID,0,
2010-03-21, 02:07:04,VALID,1002.5,VALID,0,VALID,94.354,VALID,0,VALID,24.2273,VALID,353,VALID,0,
2010-03-21, 02:08:04,VALID,1002.52,VALID,0,VALID,94.3082,VALID,0,VALID,24.2468,VALID,353,VALID,0,
2010-03-21, 02:09:04,VALID,1002.48,VALID,0,VALID,94.2777,VALID,0,VALID,24.2875,VALID,353,VALID,0,
2010-03-21, 02:10:04,VALID,1002.45,VALID,0,VALID,94.2243,VALID,0,VALID,24.2681,VALID,353,VALID,0,
2010-03-21, 02:11:04,VALID,1002.46,VALID,0,VALID,94.1862,VALID,0,VALID,24.2468,VALID,353,VALID,0,
2010-03-21, 02:12:04,VALID,1002.46,VALID,0,VALID,94.1328,VALID,0,VALID,24.2681,VALID,353,VALID,0,
2010-03-21, 02:13:04,VALID,1002.44,VALID,0,VALID,94.0717,VALID,0,VALID,24.2681,VALID,353,VALID,0,
2010-03-21, 02:14:04,VALID,1002.43,VALID,0,VALID,94.0259,VALID,0,VALID,24.2875,VALID,353,VALID,0,
2010-03-21, 02:15:04,VALID,1002.44,VALID,0,VALID,94.0107,VALID,0,VALID,24.2681,VALID,353,VALID,0,
2010-03-21, 02:16:04,VALID,1002.42,VALID,0,VALID,94.0031,VALID,0,VALID,24.2875,VALID,353,VALID,0,
2010-03-21, 02:17:04,VALID,1002.45,VALID,0,VALID,93.9725,VALID,0,VALID,24.3052,VALID,317,VALID,0.607422,
2010-03-21, 02:18:04,VALID,1002.45,VALID,0,VALID,93.9725,VALID,0,VALID,24.3441,VALID,326,VALID,0.275781,
2010-03-21, 02:19:04,VALID,1002.47,VALID,0,VALID,93.942,VALID,0,VALID,24.4257,VALID,326,VALID,0.185547,
2010-03-21, 02:20:04,VALID,1002.47,VALID,0,VALID,93.8734,VALID,0,VALID,24.4433,VALID,326,VALID,0.0109375,
2010-03-21, 02:21:04,VALID,1002.49,VALID,0,VALID,93.7284,VALID,0,VALID,24.4628,VALID,326,VALID,0,
2010-03-21, 02:22:04,VALID,1002.49,VALID,0,VALID,93.6292,VALID,0,VALID,24.4609,VALID,326,VALID,0,
2010-03-21, 02:23:04,VALID,1002.51,VALID,0,VALID,93.553,VALID,0,VALID,24.4998,VALID,326,VALID,0,
2010-03-21, 02:24:04,VALID,1002.5,VALID,0,VALID,93.4843,VALID,0,VALID,24.5601,VALID,326,VALID,0.232812,
2010-03-21, 02:25:04,VALID,1002.52,VALID,0,VALID,93.4156,VALID,0,VALID,24.5601,VALID,326,VALID,0.336328,
2010-03-21, 02:26:04,VALID,1002.53,VALID,0,VALID,93.3775,VALID,0,VALID,24.5777,VALID,326,VALID,0.333594,
2010-03-21, 02:27:04,VALID,1002.54,VALID,0,VALID,93.1868,VALID,0,VALID,24.6009,VALID,326,VALID,0.197266,
2010-03-21, 02:28:04,VALID,1002.54,VALID,0,VALID,93.08,VALID,0,VALID,24.5582,VALID,326,VALID,0.117188,
2010-03-21, 02:29:04,VALID,1002.53,VALID,0,VALID,93.0037,VALID,0,VALID,24.5777,VALID,326,VALID,0.271484,
2010-03-21, 02:30:04,VALID,1002.51,VALID,0,VALID,92.9274,VALID,0,VALID,24.5758,VALID,326,VALID,0.168359,
2010-03-21, 02:31:04,VALID,1002.52,VALID,0,VALID,92.874,VALID,0,VALID,24.5972,VALID,326,VALID,0,
2010-03-21, 02:32:04,VALID,1002.54,VALID,0,VALID,92.8664,VALID,0,VALID,24.6166,VALID,326,VALID,0,
2010-03-21, 02:33:04,VALID,1002.56,VALID,0,VALID,92.8816,VALID,0,VALID,24.6361,VALID,326,VALID,0,
2010-03-21, 02:34:04,VALID,1002.56,VALID,0,VALID,92.9426,VALID,0,VALID,24.6574,VALID,326,VALID,0,
2010-03-21, 02:35:04,VALID,1002.56,VALID,0,VALID,92.9121,VALID,0,VALID,24.6964,VALID,337,VALID,0.340625,
2010-03-21, 02:36:04,VALID,1002.57,VALID,0,VALID,92.7672,VALID,0,VALID,24.7548,VALID,9,VALID,0.503906,
2010-03-21, 02:37:04,VALID,1002.59,VALID,0,VALID,92.4697,VALID,0,VALID,24.7937,VALID,2,VALID,0.204688,
2010-03-21, 02:38:04,VALID,1002.56,VALID,0,VALID,92.1416,VALID,0,VALID,24.8522,VALID,352,VALID,0.116797,
2010-03-21, 02:39:04,VALID,1002.55,VALID,0,VALID,91.7602,VALID,0,VALID,24.8892,VALID,352,VALID,0.250781,
2010-03-21, 02:40:04,VALID,1002.55,VALID,0,VALID,91.4398,VALID,0,VALID,24.9495,VALID,352,VALID,0.323438,
2010-03-21, 02:41:04,VALID,1002.53,VALID,0,VALID,91.1422,VALID,0,VALID,25.0079,VALID,353,VALID,0.329297,
2010-03-21, 02:42:04,VALID,1002.51,VALID,0,VALID,90.7379,VALID,0,VALID,25.0255,VALID,353,VALID,0.05,
2010-03-21, 02:43:04,VALID,1002.49,VALID,0,VALID,90.3565,VALID,0,VALID,25.0469,VALID,353,VALID,0.0117188,
2010-03-21, 02:44:04,VALID,1002.53,VALID,0,VALID,90.5853,VALID,0,VALID,25.045,VALID,353,VALID,0,
2010-03-21, 02:45:04,VALID,1002.49,VALID,0,VALID,90.7913,VALID,0,VALID,25.1053,VALID,353,VALID,0,
2010-03-21, 02:46:04,VALID,1002.46,VALID,0,VALID,90.6616,VALID,0,VALID,25.1053,VALID,348,VALID,0.402344,
2010-03-21, 02:47:04,VALID,1002.46,VALID,0,VALID,90.4785,VALID,0,VALID,25.1034,VALID,326,VALID,0.0191406,
2010-03-21, 02:48:04,VALID,1002.44,VALID,0,VALID,90.387,VALID,0,VALID,25.1442,VALID,326,VALID,0.301562,
2010-03-21, 02:49:04,VALID,1002.48,VALID,0,VALID,90.1123,VALID,0,VALID,25.1637,VALID,326,VALID,0.168359,
2010-03-21, 02:50:04,VALID,1002.47,VALID,0,VALID,89.9826,VALID,0,VALID,25.1832,VALID,323,VALID,0.278516,
2010-03-21, 02:51:04,VALID,1002.49,VALID,0,VALID,89.8301,VALID,0,VALID,25.1832,VALID,323,VALID,0.340625,
2010-03-21, 02:52:04,VALID,1002.47,VALID,0,VALID,89.6699,VALID,0,VALID,25.1832,VALID,323,VALID,0.331641,
2010-03-21, 02:53:04,VALID,1002.47,VALID,0,VALID,89.7233,VALID,0,VALID,25.1832,VALID,323,VALID,0.225391,
2010-03-21, 02:54:04,VALID,1002.47,VALID,0,VALID,89.769,VALID,0,VALID,25.1832,VALID,320,VALID,0.159375,
2010-03-21, 02:55:04,VALID,1002.47,VALID,0,VALID,89.8453,VALID,0,VALID,25.1637,VALID,293,VALID,0.259766,
2010-03-21, 02:56:04,VALID,1002.43,VALID,0,VALID,89.8835,VALID,0,VALID,25.1832,VALID,293,VALID,0.301562,
2010-03-21, 02:57:04,VALID,1002.42,VALID,0,VALID,89.9445,VALID,0,VALID,25.1832,VALID,293,VALID,0.0121094,
2010-03-21, 02:58:04,VALID,1002.39,VALID,0,VALID,89.5325,VALID,0,VALID,25.1618,VALID,293,VALID,0.246875,
2010-03-21, 02:59:04,VALID,1002.36,VALID,0,VALID,89.3571,VALID,0,VALID,25.2027,VALID,295,VALID,0.794531,
2010-03-21, 03:00:04,VALID,1002.37,VALID,0,VALID,89.1892,VALID,0,VALID,25.2221,VALID,294,VALID,0.753125,
2010-03-21, 03:01:04,VALID,1002.34,VALID,0,VALID,89.0519,VALID,0,VALID,25.2611,VALID,357,VALID,0.534766,
2010-03-21, 03:02:04,VALID,1002.35,VALID,0,VALID,88.8002,VALID,0,VALID,25.2806,VALID,357,VALID,0.505078,
2010-03-21, 03:03:04,VALID,1002.33,VALID,0,VALID,88.7849,VALID,0,VALID,25.2592,VALID,346,VALID,0.241406,
2010-03-21, 03:04:04,VALID,1002.27,VALID,0,VALID,88.8765,VALID,0,VALID,25.2806,VALID,356,VALID,0.730859,
2010-03-21, 03:05:04,VALID,1002.27,VALID,0,VALID,89.1892,VALID,0,VALID,25.2806,VALID,356,VALID,0.749609,
2010-03-21, 03:06:04,VALID,1002.23,VALID,0,VALID,89.6546,VALID,0,VALID,25.2611,VALID,4,VALID,0.783984,
2010-03-21, 03:07:04,VALID,1002.2,VALID,0,VALID,90.1429,VALID,0,VALID,25.2027,VALID,4,VALID,0.717188,
2010-03-21, 03:08:04,VALID,1002.21,VALID,0,VALID,90.4251,VALID,0,VALID,25.1423,VALID,1,VALID,0.915625,
2010-03-21, 03:09:04,VALID,1002.18,VALID,0,VALID,90.509,VALID,0,VALID,25.1248,VALID,355,VALID,0.661328,
2010-03-21, 03:10:04,VALID,1002.17,VALID,0,VALID,90.8218,VALID,0,VALID,25.0858,VALID,354,VALID,0.505859,
2010-03-21, 03:11:04,VALID,1002.16,VALID,0,VALID,90.7989,VALID,0,VALID,25.0644,VALID,351,VALID,0.560156,
2010-03-21, 03:12:04,VALID,1002.18,VALID,0,VALID,90.5853,VALID,0,VALID,25.045,VALID,348,VALID,0.578906,
2010-03-21, 03:13:04,VALID,1002.19,VALID,0,VALID,90.4327,VALID,0,VALID,25.0663,VALID,342,VALID,0.481641,
2010-03-21, 03:14:04,VALID,1002.25,VALID,0,VALID,90.2191,VALID,0,VALID,25.0663,VALID,303,VALID,0.336719,
2010-03-21, 03:15:04,VALID,1002.28,VALID,0,VALID,90.0284,VALID,0,VALID,25.1072,VALID,342,VALID,0.553516,
2010-03-21, 03:16:04,VALID,1002.3,VALID,0,VALID,89.9369,VALID,0,VALID,25.1053,VALID,339,VALID,1.0082,
2010-03-21, 03:17:04,VALID,1002.32,VALID,0,VALID,89.6165,VALID,0,VALID,25.1053,VALID,351,VALID,0.481641,
2010-03-21, 03:18:04,VALID,1002.33,VALID,0,VALID,89.3266,VALID,0,VALID,25.1442,VALID,342,VALID,0.542188,
2010-03-21, 03:19:04,VALID,1002.35,VALID,0,VALID,89.2732,VALID,0,VALID,25.1637,VALID,312,VALID,0.1875,
2010-03-21, 03:20:04,VALID,1002.37,VALID,0,VALID,89.0443,VALID,0,VALID,25.1832,VALID,359,VALID,0.996875,
2010-03-21, 03:21:04,VALID,1002.37,VALID,0,VALID,88.7925,VALID,0,VALID,25.2027,VALID,356,VALID,0.905469,
2010-03-21, 03:22:04,VALID,1002.36,VALID,0,VALID,88.6552,VALID,0,VALID,25.2007,VALID,345,VALID,0.760547,
2010-03-21, 03:23:04,VALID,1002.4,VALID,0,VALID,88.3958,VALID,0,VALID,25.2202,VALID,340,VALID,0.917969,
2010-03-21, 03:24:04,VALID,1002.36,VALID,0,VALID,88.4874,VALID,0,VALID,25.2611,VALID,357,VALID,1.08203,
2010-03-21, 03:25:04,VALID,1002.35,VALID,0,VALID,88.228,VALID,0,VALID,25.2611,VALID,354,VALID,1.19609,
2010-03-21, 03:26:04,VALID,1002.39,VALID,0,VALID,88.1593,VALID,0,VALID,25.2806,VALID,344,VALID,0.755078,
2010-03-21, 03:27:04,VALID,1002.4,VALID,0,VALID,88.2661,VALID,0,VALID,25.3,VALID,1,VALID,0.621875,
2010-03-21, 03:28:04,VALID,1002.41,VALID,0,VALID,88.1746,VALID,0,VALID,25.2806,VALID,336,VALID,0.626953,
2010-03-21, 03:29:04,VALID,1002.43,VALID,0,VALID,88.0602,VALID,0,VALID,25.2806,VALID,352,VALID,0.990625,
2010-03-21, 03:30:04,VALID,1002.41,VALID,0,VALID,88.0449,VALID,0,VALID,25.2806,VALID,346,VALID,0.744141,
2010-03-21, 03:31:04,VALID,1002.44,VALID,0,VALID,88.0296,VALID,0,VALID,25.3,VALID,352,VALID,1.04219,
2010-03-21, 03:32:04,VALID,1002.45,VALID,0,VALID,87.9762,VALID,0,VALID,25.3,VALID,2,VALID,0.757422,
2010-03-21, 03:33:04,VALID,1002.43,VALID,0,VALID,87.9152,VALID,0,VALID,25.3409,VALID,348,VALID,1.325,
2010-03-21, 03:34:04,VALID,1002.47,VALID,0,VALID,87.8008,VALID,0,VALID,25.3195,VALID,318,VALID,1.10352,
2010-03-21, 03:35:04,VALID,1002.47,VALID,0,VALID,87.8618,VALID,0,VALID,25.3409,VALID,351,VALID,0.667188,
2010-03-21, 03:36:04,VALID,1002.48,VALID,0,VALID,87.8694,VALID,0,VALID,25.339,VALID,351,VALID,0.662891,
2010-03-21, 03:37:04,VALID,1002.5,VALID,0,VALID,87.9381,VALID,0,VALID,25.3195,VALID,351,VALID,0.390234,
2010-03-21, 03:38:04,VALID,1002.48,VALID,0,VALID,87.8694,VALID,0,VALID,25.3176,VALID,2,VALID,0.583984,
2010-03-21, 03:39:04,VALID,1002.51,VALID,0,VALID,87.8923,VALID,0,VALID,25.339,VALID,3,VALID,0.583594,
2010-03-21, 03:40:04,VALID,1002.5,VALID,0,VALID,87.9534,VALID,0,VALID,25.339,VALID,347,VALID,0.385938,
2010-03-21, 03:41:04,VALID,1002.51,VALID,0,VALID,88.0373,VALID,0,VALID,25.339,VALID,353,VALID,0.169922,
2010-03-21, 03:42:04,VALID,1002.5,VALID,0,VALID,87.961,VALID,0,VALID,25.339,VALID,326,VALID,0.6,
2010-03-21, 03:43:04,VALID,1002.49,VALID,0,VALID,88.0144,VALID,0,VALID,25.3584,VALID,345,VALID,0.434375,
2010-03-21, 03:44:04,VALID,1002.5,VALID,0,VALID,88.0144,VALID,0,VALID,25.3584,VALID,349,VALID,0.972656,
2010-03-21, 03:45:04,VALID,1002.52,VALID,0,VALID,87.9305,VALID,0,VALID,25.3565,VALID,1,VALID,0.500781,
2010-03-21, 03:46:04,VALID,1002.52,VALID,0,VALID,87.9762,VALID,0,VALID,25.376,VALID,351,VALID,0.508984,
2010-03-21, 03:47:04,VALID,1002.54,VALID,0,VALID,87.8923,VALID,0,VALID,25.376,VALID,2,VALID,0.363281,
2010-03-21, 03:48:04,VALID,1002.52,VALID,0,VALID,87.7626,VALID,0,VALID,25.3974,VALID,344,VALID,1.08711,
2010-03-21, 03:49:04,VALID,1002.55,VALID,0,VALID,87.7779,VALID,0,VALID,25.3741,VALID,360,VALID,0.337891,